Date,TemperatureHighF,TemperatureAvgF,TemperatureLowF,DewpointHighF,DewpointAvgF,DewpointLowF,HumidityHigh,HumidityAvg,HumidityLow,PressureMaxIn,PressureMinIn,WindSpeedMaxMPH,WindSpeedAvgMPH,GustSpeedMaxMPH,PrecipitationSumIn
2013-1-1,99.9,82.7,65.7,66.1,54.6,41.0,84,46,17,29.92,29.68,10,2,14,0.00
2013-1-2,78.3,70.8,64.8,62.1,58.8,56.0,82,66,50,30.06,29.74,10,4,14,0.00
2013-1-3,78.4,70.0,64.4,58.7,56.2,53.8,79,62,48,30.12,29.98,9,3,10,0.00
2013-1-4,88.9,74.1,61.3,61.6,57.1,50.3,86,58,29,30.06,29.89,10,2,12,0.00
2013-1-5,95.9,77.7,61.5,62.8,57.7,49.8,85,55,22,30.04,29.92,7,2,11,0.00
2013-1-6,87.3,74.8,62.1,65.8,59.9,55.6,87,62,38,30.18,30.04,8,2,13,0.00
2013-1-7,85.6,75.6,68.7,65.3,61.6,58.1,81,63,44,30.21,29.95,9,2,15,0.00
2013-1-8,100.6,83.1,62.6,66.3,53.1,40.5,88,44,18,29.95,29.39,14,4,18,0.00
2013-1-9,87.6,76.8,67.5,60.2,51.3,41.1,63,44,20,29.77,29.27,14,5,17,0.00
2013-1-10,75.0,71.1,67.6,58.1,56.1,53.9,69,59,53,29.89,29.74,8,2,12,0.00
2013-1-11,99.3,79.8,65.1,65.6,61.6,51.4,85,58,21,29.89,29.62,11,2,13,0.00
2013-1-12,106.3,83.5,67.6,70.1,59.4,45.6,87,52,14,29.92,29.65,9,2,13,0.00
2013-1-13,82.9,72.8,66.0,67.1,63.8,59.8,89,74,55,29.92,29.68,13,3,14,0.00
2013-1-14,72.3,67.1,63.7,62.5,54.2,43.0,88,65,39,30.15,29.83,19,7,23,0.04
2013-1-15,78.3,69.5,61.5,57.4,54.7,49.7,77,61,41,30.15,29.98,9,3,14,0.00
2013-1-16,91.2,73.6,58.6,63.2,57.6,52.8,88,61,31,30.04,29.80,8,2,14,0.00
2013-1-17,93.7,79.4,67.5,67.4,64.1,56.5,86,62,37,29.92,29.62,10,3,15,0.00
2013-1-18,109.2,87.8,69.8,69.6,59.9,47.1,86,48,14,29.71,29.44,14,3,18,0.03
2013-1-19,75.6,70.9,65.5,61.1,58.3,53.1,84,65,49,30.01,29.71,17,5,22,0.18
2013-1-20,70.2,68.0,65.7,67.1,64.3,60.7,92,88,82,30.06,29.98,7,1,8,0.40
2013-1-21,79.3,72.5,66.7,69.1,65.1,62.5,95,79,58,30.01,29.86,7,2,12,0.00
2013-1-22,91.8,74.9,64.4,70.0,64.5,58.4,94,73,35,29.89,29.68,9,2,10,0.14
2013-1-23,73.8,69.2,66.0,65.9,63.1,45.2,90,81,47,30.30,29.80,12,4,15,0.00
2013-1-24,81.3,73.4,66.7,67.0,64.6,62.4,89,75,58,30.01,29.86,10,4,13,0.00
2013-1-25,87.3,76.7,65.7,70.9,66.4,62.6,93,73,49,29.92,29.74,9,2,13,0.00
2013-1-26,88.5,78.0,68.7,69.0,66.0,62.6,88,68,44,29.86,29.74,14,4,20,0.00
2013-1-27,74.1,71.4,69.6,69.3,67.6,65.1,94,88,78,29.80,29.68,7,2,10,1.41
2013-1-28,70.5,69.7,68.0,69.3,68.1,66.5,96,95,94,29.80,29.59,14,3,20,3.80
2013-1-29,80.1,72.3,67.3,74.0,67.5,61.3,97,86,65,29.77,29.47,12,2,17,0.59
2013-1-30,79.0,71.6,67.1,67.4,65.0,63.1,90,80,64,29.92,29.80,7,2,10,0.00
2013-1-31,89.6,77.4,70.0,71.0,67.3,61.0,89,73,41,29.92,29.62,8,2,11,0.00